Location: Αθήνα
(37.9839°N, 23.7283°E)
Time: 22:21:30
(UTC+03:00)

EO-79 - Pass Details

Date: 26 June 2024
Orbit: 555 x 577 km, 98.0° (Epoch: 19 July)

Event Time Altitude Azimuth Distance (km) Brightness Sun altitude
Rises 04:04:43 0° 24° (NNE) 2,744 ? -18.5°
Reaches altitude 10° 04:07:04 10° 35° (NE) 1,843 ? -18.2°
Maximum altitude 04:10:35 30° 97° (E) 1,019 ? -17.8°
Enters shadow 04:13:37 13° 156° (SSE) 1,672 ? -17.4°
